Wellsville, NY

11:22 PM EST on November 22, 2017 (GMT -0500)
Wellsville Municipal-Tarantine

Weather History for KELZ - April, 2012

Change the Weather History Date:

Tuesday, April 17, 2012

  Actual Average (KDSV) Record (KDSV)
Temperature  
Mean Temperature 48 °F -  
Max Temperature 59 °F 59 °F 89 °F (2002)
Min Temperature 37 °F 36 °F 17 °F (1980)
Degree Days  
Heating Degree Days 17    
Moisture  
Dew Point 32 °F    
Average Humidity 58    
Maximum Humidity 76    
Minimum Humidity 33    
Precipitation  
Precipitation 0.00 in - - ()
Sea Level Pressure  
Sea Level Pressure 30.23 in    
Wind  
Wind Speed 10 mph (WNW)    
Max Wind Speed 17 mph    
Max Gust Speed 26 mph    
Visibility 10 miles    
Events      
Averages and records for this station are not official NWS values.
T = Trace of Precipitation, MM = Missing Value Source: NWS Daily Summary

Daily Weather History Graph

Daily Weather History Graph

Search for Another Location

Airport or City:

Trip Planner

Search our weather history database for the weather conditions in past years. The results will help you decide how hot, cold, wet, or windy it might be!

Date:

Astronomy

Apr. 17, 2012 Rise Set
Actual Time 6:27 AM EDT 7:56 PM EDT
Civil Twilight 5:58 AM EDT 8:25 PM EDT
Nautical Twilight 5:23 AM EDT 9:00 PM EDT
Astronomical Twilight 4:45 AM EDT 9:38 PM EDT
Moon 4:27 AM EDT (4/17) 4:44 PM EDT (4/17)
Length of Visible Light 14h 27m
Length of Day
13h 28m
Waning Crescent, 12% of the Moon is Illuminated
Apr 17
Waning Crescent
Apr 21
New
Apr 29
First Quarter
May 5
Full
May 12
Last Quarter

Hourly Weather History & Observations

Time (EDT) Temp. Windchill Dew Point Humidity Pressure Visibility Wind Dir Wind Speed Gust Speed Precip Events Conditions
12:56 AM 51.1 °F - 41.0 °F 68% 30.07 in 10.0 mi WNW 10.4 mph - N/A   Clear
1:45 AM 48.2 °F - 39.2 °F 71% 30.11 in 10.0 mi WNW 8.1 mph - N/A   Mostly Cloudy
1:54 AM 46.4 °F 41.9 °F 39.2 °F 76% 30.12 in 10.0 mi WNW 9.2 mph - N/A   Scattered Clouds
1:56 AM 46.9 °F - 39.0 °F 74% 30.10 in 10.0 mi WNW 8.1 mph - N/A   Scattered Clouds
2:56 AM 46.0 °F 40.2 °F 36.0 °F 68% 30.12 in 10.0 mi West 12.7 mph - N/A   Partly Cloudy
3:56 AM 45.0 °F 38.9 °F 35.1 °F 68% 30.14 in 10.0 mi West 12.7 mph 21.9 mph N/A   Clear
4:56 AM 43.0 °F 36.8 °F 34.0 °F 71% 30.17 in 10.0 mi WNW 11.5 mph - N/A   Scattered Clouds
5:11 AM 42.8 °F 37.0 °F 33.8 °F 70% 30.17 in 10.0 mi West 10.4 mph - N/A   Mostly Cloudy
5:24 AM 42.8 °F 36.6 °F 33.8 °F 70% 30.18 in 10.0 mi WNW 11.5 mph - N/A   Scattered Clouds
5:56 AM 42.1 °F 34.5 °F 33.1 °F 70% 30.18 in 10.0 mi WNW 15.0 mph 23.0 mph N/A   Partly Cloudy
6:56 AM 41.0 °F 34.7 °F 33.1 °F 73% 30.19 in 10.0 mi West 10.4 mph - N/A   Clear
7:56 AM 42.1 °F 37.1 °F 33.1 °F 70% 30.23 in 10.0 mi West 8.1 mph - N/A   Clear
8:56 AM 45.0 °F 40.6 °F 34.0 °F 65% 30.25 in 10.0 mi West 8.1 mph - N/A   Clear
9:56 AM 46.9 °F - 34.0 °F 61% 30.26 in 10.0 mi West 10.4 mph 17.3 mph N/A   Clear
10:56 AM 48.0 °F - 33.1 °F 56% 30.28 in 10.0 mi WNW 10.4 mph 18.4 mph N/A   Clear
11:56 AM 52.0 °F - 33.1 °F 49% 30.27 in 10.0 mi WSW 6.9 mph - N/A   Clear
12:56 PM 57.9 °F - 30.9 °F 36% 30.25 in 10.0 mi WNW 9.2 mph 18.4 mph N/A   Clear
1:56 PM 57.9 °F - 28.9 °F 33% 30.26 in 10.0 mi NW 17.3 mph 26.5 mph N/A   Unknown
2:56 PM 57.0 °F - 28.0 °F 33% 30.27 in 10.0 mi West 13.8 mph 24.2 mph N/A   Clear
3:56 PM 57.0 °F - 28.0 °F 33% 30.25 in 10.0 mi WNW 16.1 mph 26.5 mph N/A   Clear
4:56 PM 57.0 °F - 28.9 °F 34% 30.26 in 10.0 mi NW 15.0 mph 23.0 mph N/A   Clear
6:56 PM 51.1 °F - 28.0 °F 41% 30.30 in 10.0 mi NW 10.4 mph - N/A   Clear
7:56 PM 46.0 °F 40.6 °F 26.1 °F 46% 30.32 in 10.0 mi NNW 11.5 mph - N/A   Clear
8:56 PM 43.0 °F 38.2 °F 26.1 °F 51% 30.34 in 10.0 mi NNW 8.1 mph - N/A   Clear
9:56 PM 41.0 °F 35.2 °F 27.0 °F 57% 30.34 in 10.0 mi NNW 9.2 mph - N/A   Clear
10:56 PM 39.0 °F 34.8 °F 27.0 °F 62% 30.32 in 10.0 mi NW 5.8 mph - N/A   Clear
11:56 PM 37.0 °F 32.4 °F 28.0 °F 70% 30.34 in 10.0 mi NW 5.8 mph - N/A   Clear